[[{"header":{"parameterUnit":"m.s-1","parameterCategory":1,"la1":30.2991,"la2":30.254,"lo1":-89.0895,"lo2":-89.0444,"dx":0.0017,"dy":0.0017,"nx":28,"ny":28,"refTime":"2023-01-17T09:00:00:Z","depth":0,"parameterNumber":2,"parameterNumberName":"U-component_of_WINDS"},"data":[0,0,0,0,0,0,0,0,0,0,0,0,0,0,0,0,0,0,0,0,0,0,0,0,0,0,0,0,0,0,0,0,0,0,0,0,0,0,0,0,0,0,0,0,0,0,0,0,0,0,0,0,0,0,0,0,0,0,-3.0335,-3.0335,0,-3.0415,-3.0416,-3.0417,-3.0417,-3.0416,-3.0415,-3.0414,-3.0494,-3.0497,-3.05,0,0,0,0,0,0,0,0,0,0,0,0,0,-3.0179,-3.0182,-3.0334,-3.0335,-3.0337,-3.0415,-3.0416,-3.0417,-3.0417,-3.0416,-3.0415,-3.0414,-3.0493,-3.0497,-3.05,0,0,0,0,0,0,0,0,0,0,0,0,0,-3.0252,-3.0183,-3.0334,-3.0346,-3.0348,-3.0415,-3.0416,-3.0417,-3.0417,-3.0416,-3.0414,-3.0413,-3.0492,-3.0496,-3.0501,-3.056,0,0,-3.0515,-3.0517,0,0,0,0,0,0,0,0,-3.0248,-3.0258,-3.0343,-3.0345,-3.0348,-3.0404,-3.0391,-3.0465,-3.0418,-3.0391,-3.0414,-3.0412,-3.0465,-3.0472,-3.049,-3.0564,-3.0567,-3.0515,-3.0518,-3.052,-3.0521,0,0,0,0,0,0,0,-3.0243,-3.0254,-3.0366,-3.0345,-3.0347,-3.0347,-3.0355,-3.0405,-3.0436,-3.0393,-3.0393,-3.0403,-3.0466,-3.0486,-3.0492,-3.0569,-3.0515,-3.0519,-3.0522,-3.0524,-3.0694,-3.0696,0,0,0,0,0,0,-3.0236,-3.025,-3.0364,-3.0369,-3.0293,-3.0351,-3.036,-3.0388,-3.0435,-3.0441,-3.0404,-3.0403,-3.0479,-3.0487,-3.0495,-3.0567,-3.052,-3.0524,-3.0527,-3.0693,-3.0695,-3.0697,0,0,0,0,0,0,-3.0232,-3.0246,-3.036,-3.0309,-3.0324,-3.0355,-3.0386,-3.039,-3.041,-3.0444,-3.0449,-3.0419,-3.0478,-3.0489,-3.0544,-3.057,-3.0527,-3.0531,-3.0691,-3.0693,-3.0696,-3.0711,0,0,0,0,0,0,-3.0228,-3.0245,-3.0268,-3.031,-3.0327,-3.0409,-3.0387,-3.0393,-3.0418,-3.0417,-3.0459,-3.0464,-3.0477,-3.0537,-3.0549,-3.0575,-3.0534,-3.0688,-3.0692,-3.0695,-3.0709,-3.0714,-3.0719,0,0,0,0,0,-3.0222,-3.0269,-3.0269,-3.0283,-3.0357,-3.041,-3.042,-3.0435,-3.042,-3.0443,-3.0465,-3.0463,-3.0566,-3.0543,-3.0556,-3.0584,-3.0687,-3.0691,-3.0695,-3.0706,-3.0713,-3.0719,0,0,0,0,0,0,-3.0228,-3.0274,-3.0275,-3.0337,-3.037,-3.041,-3.044,-3.0441,-3.0478,-3.0476,-3.0492,-3.0502,-3.0557,-3.0576,-3.055,-3.0644,-3.0624,-3.0631,-3.0629,-3.0636,-3.0641,-3.0634,-3.0538,0,0,0,0,0,-3.0236,-3.0277,-3.0315,-3.0366,-3.0382,-3.0408,-3.0432,-3.0441,-3.0475,-3.0489,-3.0515,-3.0548,-3.0587,-3.0613,-3.0651,-3.0712,-3.0721,-3.0738,-3.0743,-3.0748,-3.0752,-3.0785,-3.0793,-3.071,-3.071,-3.071,0,0,-3.0254,-3.0284,-3.0309,-3.0367,-3.0394,-3.0434,-3.042,-3.0463,-3.0493,-3.0495,-3.0549,-3.0569,-3.0607,-3.0666,-3.0693,-3.0683,-3.0778,-3.0753,-3.0756,-3.0758,-3.079,-3.0798,-3.0805,-3.0712,-3.0712,-3.0711,0,0,-3.0306,-3.0334,-3.0379,-3.0406,-3.0447,-3.0464,-3.0475,-3.0515,-3.0529,-3.0584,-3.0586,-3.0622,-3.069,-3.0716,-3.0739,-3.0803,-3.0801,-3.0815,-3.0841,-3.0873,-3.0879,-3.0885,-3.0906,-3.0914,-3.082,-3.082,-3.082,0,-3.0323,-3.0384,-3.0401,-3.0445,-3.0471,-3.0476,-3.0521,-3.0546,-3.0597,-3.0614,-3.0604,-3.0689,-3.0715,-3.0779,-3.0795,-3.0813,-3.0825,-3.0809,-3.0877,-3.0883,-3.0889,-3.0909,-3.0917,-3.0821,-3.0821,-3.0821,-3.0821,0,-3.0402,-3.0445,-3.0476,-3.0526,-3.0555,-3.0599,-3.0622,-3.065,-3.0656,-3.0675,-3.073,-3.0761,-3.0806,-3.0822,-3.0829,-3.0888,-3.088,-3.0874,-3.0854,-3.0898,-3.0917,-3.0925,-3.0823,-3.0823,-3.0822,-3.0822,0,0,-3.0458,-3.0518,-3.0529,-3.0551,-3.0597,-3.063,-3.0674,-3.0719,-3.0741,-3.0777,-3.0813,-3.0871,-3.0865,-3.0891,-3.0901,-3.0929,-3.0976,-3.0919,-3.092,-3.0927,-3.1041,-3.1044,-3.1053,-3.0977,-3.0978,-3.0979,-3.1037,0,-3.0514,-3.0594,-3.0611,-3.0679,-3.0718,-3.0724,-3.0762,-3.0794,-3.0813,-3.0848,-3.0869,-3.0909,-3.0899,-3.0914,-3.0942,-3.0964,-3.0999,-3.0961,-3.1009,-3.1011,-3.0998,-3.1064,-3.1068,-3.1121,-3.1045,-3.1046,-3.1047,0,-3.059,-3.0627,-3.07,-3.074,-3.0757,-3.0791,-3.0833,-3.0868,-3.0904,-3.0915,-3.0944,-3.0952,-3.0997,-3.0977,-3.104,-3.1013,-3.1034,-3.1048,-3.1051,-3.1054,-3.103,-3.1067,-3.1138,-3.1145,-3.106,-3.1059,-3.1058,0,-3.0622,-3.0691,-3.0742,-3.0762,-3.0811,-3.0834,-3.0856,-3.0891,-3.0916,-3.0953,-3.0969,-3.1011,-3.1033,-3.1065,-3.1083,-3.1067,-3.1144,-3.1125,-3.1153,-3.1153,-3.1167,-3.1166,-3.1241,-3.1184,-3.1184,-3.1184,-3.1184,0,-3.0681,-3.0725,-3.0757,-3.0789,-3.0838,-3.0857,-3.0905,-3.0926,-3.0957,-3.0992,-3.1001,-3.1033,-3.1056,-3.1092,-3.1107,-3.1155,-3.1166,-3.1175,-3.1178,-3.1174,-3.1172,-3.1186,-3.1182,-3.1186,-3.1186,-3.1185,-3.1185,0,-3.0724,-3.0748,-3.0805,-3.0847,-3.0858,-3.0892,-3.0928,-3.0958,-3.0978,-3.1022,-3.1034,-3.1064,-3.1107,-3.1128,-3.1182,-3.1191,-3.1246,-3.1248,-3.1234,-3.1234,-3.1261,-3.1257,-3.1346,-3.1358,-3.1295,-3.1296,-3.1296,0,-3.076,-3.0793,-3.0839,-3.0864,-3.0886,-3.0925,-3.0952,-3.0972,-3.0999,-3.1044,-3.1069,-3.1112,-3.1148,-3.1216,-3.1242,-3.1282,-3.1284,-3.1312,-3.129,-3.1284,-3.1282,-3.1279,-3.1282,-3.1315,-3.1316,-3.1316,-3.1317,0,-3.082,-3.083,-3.0868,-3.091,-3.0942,-3.0976,-3.1009,-3.1029,-3.1055,-3.1085,-3.1129,-3.1157,-3.1212,-3.1254,-3.1297,-3.1318,-3.1321,-3.1324,-3.1332,-3.1327,-3.1317,-3.1321,-3.1242,-3.1321,-3.1321,-3.132,-3.132,-3.132,-3.0859,-3.0889,-3.0926,-3.0968,-3.0995,-3.1027,-3.1057,-3.1081,-3.1118,-3.1165,-3.1175,-3.1221,-3.1257,-3.1315,-3.1337,-3.1374,-3.1367,-3.138,-3.1383,-3.1385,-3.1385,-3.1313,-3.1382,-3.1382,-3.1382,-3.1381,-3.1381,0,-3.0918,-3.0942,-3.0981,-3.1028,-3.1061,-3.1063,-3.11,-3.1127,-3.1168,-3.1201,-3.1236,-3.1287,-3.1329,-3.1358,-3.14,-3.1424,-3.1426,-3.1434,-3.1431,-3.1436,-3.1389,-3.1377,-3.1431,-3.1431,-3.1431,-3.1431,-3.1431,-3.1431,-3.0952,-3.1003,-3.1017,-3.1081,-3.1105,-3.1151,-3.1172,-3.1201,-3.1228,-3.1284,-3.1319,-3.1338,-3.137,-3.1415,-3.1453,-3.146,-3.1474,-3.1482,-3.1489,-3.1445,-3.1439,-3.1434,-3.1423,-3.1485,-3.1485,-3.1533,-3.1533,-3.1533]},{"header":{"parameterUnit":"m.s-1","parameterCategory":1,"la1":30.2991,"la2":30.254,"lo1":-89.0895,"lo2":-89.0444,"dx":0.0017,"dy":0.0017,"nx":28,"ny":28,"refTime":"2023-01-17T09:00:00:Z","depth":0,"parameterNumber":3,"parameterNumberName":"V-component_of_WINDS"},"data":[0,0,0,0,0,0,0,0,0,0,0,0,0,0,0,0,0,0,0,0,0,0,0,0,0,0,0,0,0,0,0,0,0,0,0,0,0,0,0,0,0,0,0,0,0,0,0,0,0,0,0,0,0,0,0,0,0,0,3.4064,3.4064,0,3.4073,3.4073,3.4073,3.4067,3.4067,3.4066,3.4066,3.4073,3.4073,3.4074,0,0,0,0,0,0,0,0,0,0,0,0,0,3.4039,3.404,3.4064,3.4064,3.4064,3.4073,3.4073,3.4073,3.4067,3.4067,3.4066,3.4066,3.4073,3.4073,3.4074,0,0,0,0,0,0,0,0,0,0,0,0,0,3.4049,3.404,3.4064,3.4062,3.4062,3.4073,3.4073,3.4073,3.4067,3.4067,3.4066,3.4066,3.4073,3.4073,3.4074,3.4086,0,0,3.4076,3.4076,0,0,0,0,0,0,0,0,3.4049,3.405,3.4062,3.4062,3.4062,3.4068,3.4067,3.4077,3.4067,3.4065,3.4066,3.4066,3.4072,3.4072,3.4075,3.4086,3.4087,3.4076,3.4076,3.4077,3.4077,0,0,0,0,0,0,0,3.4048,3.405,3.4067,3.4062,3.4062,3.406,3.4061,3.4069,3.407,3.4065,3.4065,3.4066,3.4072,3.4074,3.4075,3.4087,3.4076,3.4077,3.4077,3.4077,3.4111,3.4111,0,0,0,0,0,0,3.4048,3.4049,3.4067,3.4067,3.4054,3.4061,3.4062,3.4067,3.407,3.4071,3.4067,3.4066,3.4073,3.4074,3.4075,3.4091,3.4077,3.4077,3.4078,3.411,3.4111,3.4111,0,0,0,0,0,0,3.4047,3.4049,3.4067,3.4058,3.406,3.4062,3.4067,3.4067,3.407,3.4071,3.4071,3.4069,3.4073,3.4074,3.4084,3.4091,3.4078,3.4078,3.411,3.4111,3.4111,3.4122,0,0,0,0,0,0,3.4046,3.4049,3.4054,3.4058,3.4061,3.4076,3.4068,3.4068,3.4071,3.4071,3.4074,3.4074,3.4073,3.4083,3.4085,3.4092,3.4079,3.4109,3.411,3.4111,3.4121,3.4123,3.4125,0,0,0,0,0,3.4046,3.4056,3.4054,3.4056,3.4067,3.4076,3.4077,3.4077,3.4072,3.4077,3.4078,3.4074,3.409,3.4084,3.4086,3.4093,3.4109,3.411,3.4111,3.412,3.4123,3.4125,0,0,0,0,0,0,3.405,3.4056,3.4055,3.4066,3.4071,3.4075,3.4081,3.4079,3.4084,3.4083,3.4081,3.4082,3.4093,3.4094,3.4087,3.4106,3.4099,3.41,3.4105,3.4108,3.411,3.4109,3.4079,0,0,0,0,0,3.4053,3.4061,3.4065,3.4075,3.4078,3.4079,3.4083,3.4082,3.4087,3.4088,3.409,3.4093,3.41,3.4104,3.4109,3.4121,3.4123,3.4127,3.4129,3.4131,3.4132,3.414,3.4143,3.4115,3.4115,3.4115,0,0,3.4058,3.4062,3.4067,3.4076,3.408,3.4088,3.4081,3.4089,3.4094,3.4089,3.4099,3.4101,3.4105,3.4116,3.4121,3.4117,3.414,3.4132,3.4134,3.4134,3.4142,3.4145,3.4147,3.4116,3.4116,3.4116,0,0,3.4072,3.4075,3.4085,3.4089,3.4095,3.4097,3.4099,3.4104,3.4105,3.4116,3.4112,3.4119,3.4129,3.4133,3.4136,3.4153,3.415,3.4155,3.4165,3.4173,3.4175,3.4177,3.4184,3.4187,3.4156,3.4156,3.4156,0,3.4077,3.4089,3.409,3.4099,3.4104,3.4101,3.4111,3.4115,3.4122,3.4125,3.4121,3.4135,3.4137,3.415,3.4155,3.4157,3.416,3.4154,3.4175,3.4177,3.4178,3.4185,3.4188,3.4157,3.4157,3.4157,3.4156,0,3.4096,3.4105,3.4112,3.4121,3.4126,3.4136,3.4138,3.4143,3.4142,3.4144,3.4155,3.4158,3.4165,3.4168,3.4167,3.4182,3.418,3.4175,3.4167,3.4182,3.4188,3.4191,3.4158,3.4157,3.4157,3.4157,0,0,3.4112,3.4123,3.4126,3.4131,3.4138,3.4144,3.4154,3.4162,3.4168,3.4173,3.4181,3.4191,3.4188,3.4191,3.419,3.4197,3.4212,3.4192,3.4192,3.4197,3.4231,3.4235,3.4238,3.421,3.4211,3.4211,3.4231,0,3.4127,3.4145,3.4147,3.4163,3.4172,3.417,3.4179,3.4184,3.4187,3.4194,3.4196,3.4204,3.4198,3.42,3.4207,3.4209,3.4219,3.4208,3.4218,3.4219,3.4218,3.4241,3.4245,3.4263,3.4233,3.4234,3.4234,0,3.4146,3.4155,3.4172,3.4181,3.4184,3.4192,3.4201,3.4208,3.4214,3.4216,3.4221,3.422,3.423,3.4222,3.4236,3.4228,3.4233,3.4234,3.4235,3.4236,3.4228,3.4244,3.4269,3.4272,3.4238,3.4237,3.4237,0,3.4158,3.4173,3.4186,3.419,3.4199,3.4205,3.4209,3.4216,3.4221,3.4228,3.4232,3.424,3.4244,3.425,3.4251,3.4245,3.4266,3.4258,3.4268,3.4268,3.4272,3.4272,3.4299,3.4274,3.4274,3.4274,3.4274,0,3.4174,3.4185,3.4191,3.4199,3.4212,3.4214,3.4227,3.423,3.4236,3.4245,3.4243,3.4251,3.4252,3.426,3.4261,3.4273,3.4275,3.4276,3.4276,3.4277,3.4277,3.428,3.4279,3.4275,3.4274,3.4274,3.4274,0,3.4189,3.4193,3.4208,3.4216,3.4219,3.4228,3.4235,3.4243,3.4246,3.4257,3.426,3.4264,3.4274,3.4276,3.4287,3.4287,3.4303,3.4301,3.4301,3.4301,3.4311,3.4311,3.4342,3.4347,3.4318,3.4318,3.4318,0,3.4199,3.4208,3.4219,3.4226,3.4231,3.4241,3.4247,3.425,3.4256,3.4266,3.4273,3.4283,3.4291,3.4307,3.431,3.4319,3.4318,3.4329,3.432,3.432,3.432,3.432,3.4321,3.4331,3.4331,3.4331,3.4331,0,3.4218,3.4221,3.423,3.4242,3.425,3.4259,3.4267,3.4272,3.4276,3.4283,3.4295,3.4301,3.4314,3.4324,3.4333,3.4337,3.4335,3.4334,3.4337,3.4338,3.4338,3.434,3.4307,3.4334,3.4333,3.4333,3.4333,3.4333,3.4232,3.424,3.425,3.4262,3.4269,3.4277,3.4286,3.4291,3.43,3.4312,3.4313,3.4325,3.4333,3.4345,3.435,3.4359,3.4356,3.436,3.4361,3.4362,3.4364,3.4337,3.4361,3.4361,3.4361,3.4361,3.4361,0,3.4251,3.4258,3.4269,3.4282,3.4291,3.429,3.43,3.4308,3.4319,3.4327,3.4336,3.435,3.436,3.4365,3.4376,3.4383,3.4382,3.4385,3.4385,3.4386,3.4366,3.4363,3.4386,3.4386,3.4386,3.4386,3.4386,3.4386,3.4263,3.4278,3.4282,3.4301,3.4308,3.4321,3.4327,3.4335,3.4342,3.4357,3.4367,3.4371,3.4378,3.4389,3.4399,3.44,3.4405,3.4409,3.441,3.439,3.4388,3.4385,3.4382,3.4409,3.4409,3.443,3.443,3.443]}]]